Showing default

OPTUS D2, 32252

Orbit data source: Space-Track

OPTUS D2, 32252 is a payload satellite owned by SingTel Optus (AU) in GEO that was launched on Fri, 05 Oct 2007 UTC via an ARIANE 5GS launch vehicle from the French Guiana (FRGUI). Payload-class satellites include a variety of spacecraft equipped with specific instruments for various scientific and technological missions. These include communications satellites like Starlink; space stations such as the ISS; scientific satellites like the Hubble; Earth observation satellites from companies like Planet Labs, Umbra, and HawkEye 360; GPS; miniature CubeSats for education and research; and military/defense satellites.

Loading next visibility...
Identifier
32252, 2007-044A
Orbit
GEO
Country
Flag of AUAU / AUS
Related business
Manufacturer
OSC
Mission
Non-operational Commercial Communications
Bus & Motor
OSC STAR 2.4, BT-4
Mass
2,350 kg wet, 1,079 kg dry
Launch date (UTC)
2007-10-05 (19 years ago)
Launch vehicle
ARIANE 5GS
Launch site
French Guiana (FRGUI)
Object type
Payload
Rocket body
Debris
Shape & HBR
Box + 2 Pan, 11.2 m
Radar Cross Section
24.712 m², Large (>1 m²)

Expand to show TLE details & history
Last TLE update: 14 hours ago

TLE from 14 hours ago
0 OPTUS D2
1 32252U 07044A   26267.29419628  .00000097  00000-0  00000-0 0  9999
2 32252   2.3309  80.7088 0002727 113.2958 138.1019  0.99341993 69523
Epoch: 2026-09-24T07:03Z
TLE epoch observation values (Epoch: 2026-09-24T07:03:38.558Z)
Latitude
-2.20008°
Longitude
-136.95343°
Altitude
36,057.761 km
Speed
3.065 km/s
True Right ascension
22h 08m 21s
True Declination
-2° 11' 52"
Sunlit
Object was in daylight at epoch
Visualization orbit readout
Latitude
Unknown
Longitude
Unknown
Altitude
Unknown
Speed
Unknown
Apparent Right ascension
Unknown
Apparent Declination
Unknown
Sunlit
N/A
Visualization observer readout
Local Sidereal Time
14:43:45
Azimuth
Unknown
Elevation
Unknown
Doppler factor
Unknown
Orbital elements
Apogee altitude
36,061.912 km
Perigee altitude
36,038.772 km
Semi-major axis
42,428.479 km
Eccentricity
0.00027
Inclination
2.3309°
RAAN
80.7088°
Arg. of periapsis
113.2958°
True anomaly
138.12276°
Mean anomaly
138.1019°
Eccentric anomaly
138.11233°
Mean motion
0.24835 °/min
Orbital period
1,449.59 mins
BSTAR
0
Loading maneuver chart data...
Computing Atmospheric mass density...
Loading historical data...
Loading historical data...
Loading historical data...
Loading historical data...
Loading historical data...
Loading historical data...
Loading historical data...
Other satellites on launch #44 in the year 2007 (2007-10-05 UTC)

Documentation

Showing up to 5 results
|